Theta_e
317 317 323 325 323 330 341 344 341 343 347 351 352 352 352 352 352 354 352 347 339 337 332 328 325 323 324 326 329 330 331 331 330 331 331 331 329 328 328 329 329 330 330 330 330 330 330 330 330
316 319 326 325 322 335 340 339 343 342 346 351 351 350 352 354 353 351 350 343 340 338 335 333 330 326 324 324 325 325 326 326 326 327 327 328 328 327 328 329 330 330 330 329 329 328 328 328 327
317 324 325 318 320 326 340 339 342 342 347 348 353 352 351 353 353 352 350 347 341 336 335 334 334 332 328 325 324 324 324 324 324 324 324 325 325 326 326 327 327 327 327 326 327 327 328 328 328
323 324 324 320 324 324 335 337 344 344 348 351 351 351 353 352 351 351 351 349 349 340 334 332 333 333 333 331 328 326 326 326 326 326 327 327 327 327 327 328 328 329 329 329 330 330 330 331 331
322 323 318 320 322 332 336 341 344 346 348 348 350 352 353 351 350 352 351 350 347 341 334 332 331 330 332 333 333 333 333 333 332 332 332 332 333 333 334 336 337 337 337 337 339 341 342 342 341
322 320 317 319 319 337 336 346 347 346 347 350 351 352 353 349 351 351 350 348 338 332 328 325 325 326 327 329 331 333 334 335 336 336 336 336 336 336 341 345 345 346 347 343 342 339 333 333 334
320 315 318 320 320 337 337 345 343 340 337 349 350 352 354 354 353 350 349 345 339 335 340 345 330 332 329 329 330 330 331 332 333 333 333 334 340 341 345 346 344 337 334 332 335 332 332 335 338
322 315 318 317 318 322 337 340 341 338 340 348 350 352 352 353 352 351 349 343 345 347 347 346 339 330 324 326 328 324 322 318 317 320 327 335 338 342 343 340 334 331 329 331 332 330 332 334 336
323 316 315 318 320 337 339 337 339 338 340 347 348 348 349 354 354 353 350 346 345 348 343 328 327 326 324 323 320 318 317 315 313 313 313 314 317 320 321 321 318 317 320 322 324 322 325 327 328
320 315 319 318 324 338 338 338 337 341 343 347 350 350 351 354 353 352 351 345 344 344 335 327 327 327 325 324 322 319 320 320 320 318 318 317 315 314 314 316 318 318 317 316 316 317 316 316 316
320 318 319 321 323 331 337 337 341 345 348 349 348 348 349 353 344 346 348 345 339 335 330 325 327 327 325 324 323 321 321 321 322 322 321 321 321 321 321 323 323 323 322 322 321 321 321 320 319
320 321 321 322 323 330 336 338 345 345 347 348 345 338 343 344 342 342 346 344 333 331 330 326 327 325 325 324 322 323 324 323 322 322 323 325 326 326 326 325 325 325 326 325 324 324 323 323 322
318 320 322 323 322 325 333 333 338 343 347 345 337 339 342 344 342 340 337 332 329 328 327 326 326 324 324 323 323 324 326 325 324 324 326 327 328 328 328 328 328 328 328 328 328 327 327 326 325
322 323 321 323 325 326 330 336 341 344 344 340 341 341 343 335 337 340 337 332 329 322 322 323 325 324 322 321 322 324 325 326 326 327 327 328 329 329 329 329 329 329 329 329 329 328 328 328 328
324 322 320 323 324 325 330 335 341 342 342 343 342 342 335 330 337 339 333 329 327 325 324 322 320 322 327 326 325 324 324 326 328 329 330 330 329 330 330 330 330 330 330 330 329 329 329 328 328
322 319 320 321 323 327 329 328 335 341 340 340 341 339 329 327 328 328 327 327 326 327 326 326 326 329 329 330 331 328 327 330 330 330 331 331 331 330 330 329 329 328 328 328 327 327 325 325 325
319 320 322 321 322 326 327 327 336 338 338 338 338 336 328 327 327 327 327 327 327 325 327 327 325 329 329 329 329 330 327 332 333 333 331 330 329 328 327 327 327 326 326 324 318 313 311 311 312
322 322 320 320 321 323 326 326 324 332 334 334 335 333 328 327 327 327 328 328 328 327 328 328 328 330 330 330 332 332 328 333 333 333 331 329 326 326 326 327 326 320 313 310 310 311 312 314 314
321 322 322 321 321 321 324 324 323 326 331 331 332 332 329 328 328 328 328 328 328 328 329 330 330 331 333 333 333 333 335 335 334 333 330 326 323 323 320 314 311 310 311 311 312 312 312 313 312
321 322 321 320 322 319 320 322 321 322 328 331 331 331 331 328 328 328 328 328 329 329 331 332 332 333 333 333 333 335 337 334 329 328 324 320 317 314 311 309 310 310 310 310 311 311 311 311 310
323 322 323 323 323 323 321 322 324 323 326 328 331 332 331 330 329 329 329 329 330 331 332 333 333 333 334 336 337 335 328 325 323 319 318 316 312 309 308 309 309 309 309 310 310 310 310 309 308
325 323 325 324 322 322 322 322 322 323 322 322 327 328 330 331 330 329 330 331 331 332 333 333 334 335 336 336 334 329 324 320 317 316 313 310 308 307 308 308 309 310 310 310 309 308 307 306 306
323 324 325 326 321 321 321 320 320 320 321 321 324 326 329 330 330 330 331 332 333 334 334 335 336 335 333 331 328 324 319 316 313 310 307 307 307 308 309 310 310 309 307 306 306 306 306 305 305
324 323 320 319 319 321 320 319 318 319 321 323 325 327 326 328 329 331 333 335 335 335 334 332 332 331 328 325 322 317 315 311 308 307 307 308 309 310 308 306 306 306 305 306 306 306 306 306 306
320 319 320 322 321 322 320 325 322 322 325 324 328 334 335 335 335 336 336 334 332 331 330 329 329 328 323 321 317 312 308 307 307 307 309 309 307 307 306 305 305 306 306 307 307 306 306 306 305
320 319 322 323 324 324 322 326 326 326 323 328 331 333 334 334 334 333 331 329 328 327 326 325 324 322 321 315 310 307 306 307 308 309 307 306 306 305 306 306 307 307 307 307 308 308 307 307 307
321 322 319 321 322 323 321 324 327 327 327 327 331 331 330 332 332 331 328 327 326 325 323 322 321 318 312 308 306 307 308 308 308 307 306 305 305 306 307 307 307 308 308 308 308 308 309 309 309
320 319 320 319 324 325 323 326 328 329 328 326 329 329 328 327 327 326 325 324 323 322 321 320 317 312 308 307 307 308 308 307 306 305 305 306 306 306 307 307 307 308 308 308 308 308 309 309 310
321 320 319 318 322 323 324 325 329 328 326 327 327 328 326 324 323 321 320 319 319 319 320 317 311 307 307 307 308 307 306 305 305 305 306 306 306 306 307 308 308 307 308 308 309 309 309 308 309
324 326 324 324 327 325 326 325 326 326 326 329 329 328 325 322 319 318 317 318 318 319 316 310 306 306 307 307 307 306 305 304 305 305 305 305 306 306 307 308 308 308 308 308 309 309 308 308 309
Wind_Speed
12 11 7 4 4 5 1 5 4 5 5 12 18 13 11 15 3 5 17 12 15 14 14 12 11 11 11 10 10 10 10 9 9 8 8 7 7 6 5 4 3 1 2 4 5 5 5 5 5
10 7 5 2 5 4 4 4 6 10 9 13 27 24 27 12 18 20 20 14 14 14 13 12 11 10 11 10 10 9 9 8 7 7 6 5 4 4 3 1 1 2 4 6 6 7 8 9 10
7 7 3 4 4 4 6 5 12 15 8 11 5 12 6 7 17 12 17 18 11 11 11 11 11 10 10 10 10 9 8 7 7 6 5 4 3 3 3 3 5 6 7 8 9 9 10 11 11
6 3 1 4 3 5 5 8 16 16 17 18 19 9 11 11 17 21 16 11 9 8 10 10 10 10 9 9 8 7 7 6 6 5 5 4 4 4 4 5 6 7 8 9 10 12 12 13 14
7 2 4 1 5 4 5 13 34 17 10 19 24 10 8 16 16 18 14 9 4 9 10 10 10 10 9 8 7 6 5 5 4 4 3 3 3 3 4 4 5 7 8 9 10 11 14 16 16
4 1 3 2 3 5 7 19 18 17 15 21 17 19 9 23 20 17 13 10 9 11 12 11 11 10 9 7 6 6 4 3 3 2 2 1 2 2 2 4 7 7 8 10 11 12 13 15 15
3 3 4 3 3 2 7 27 11 9 12 9 30 7 17 22 19 18 16 14 14 13 14 13 12 11 9 8 7 6 6 5 4 3 2 1 2 1 2 5 6 8 8 11 11 12 14 14 13
3 4 3 1 3 4 17 13 22 22 9 26 22 8 14 27 22 20 16 15 14 13 12 12 12 12 10 9 9 8 8 7 5 3 1 1 2 3 5 8 11 12 12 11 11 14 15 15 16
8 3 1 3 0 5 20 5 23 9 19 20 12 25 29 28 27 23 21 20 16 14 10 11 12 13 13 13 12 12 12 12 13 10 7 5 5 5 7 9 11 13 14 14 16 18 17 18 19
3 3 5 8 8 11 5 3 19 12 15 14 23 26 28 31 33 29 27 25 19 18 14 11 11 10 9 8 9 11 11 11 12 10 11 11 10 9 10 9 12 13 12 12 13 16 19 19 21
2 5 5 20 15 21 24 24 16 20 6 34 35 36 30 34 27 30 28 26 24 19 14 11 10 10 6 4 4 6 7 8 7 8 10 11 11 12 12 15 18 19 21 21 19 23 25 26 25
3 15 16 28 29 16 25 28 14 16 18 36 35 32 30 31 30 29 34 31 24 22 20 15 16 12 11 7 2 1 3 3 5 8 10 11 12 13 15 18 21 24 24 25 23 26 28 29 30
7 14 22 26 22 4 12 14 19 20 35 34 30 28 28 31 31 31 32 29 25 24 24 15 17 13 11 7 6 4 2 2 4 8 10 11 14 16 18 20 22 23 25 25 26 27 30 34 35
14 19 17 8 4 2 12 12 11 23 35 33 32 28 26 22 27 37 36 31 24 22 23 18 18 14 11 9 9 8 5 7 8 11 11 14 16 19 22 22 22 22 22 23 24 28 31 34 37
14 6 6 3 2 2 21 4 10 34 36 36 34 29 26 26 32 39 35 30 26 19 16 16 16 14 8 6 5 4 4 4 6 9 12 16 19 20 19 18 18 19 20 25 28 31 34 37 40
6 4 3 5 4 1 7 5 8 35 36 30 33 28 29 31 31 35 30 24 23 16 12 13 14 12 10 7 5 2 3 6 10 14 18 18 18 15 16 20 22 24 26 29 32 35 38 38 38
6 2 1 8 6 5 4 6 24 34 32 31 34 30 38 37 34 30 26 20 18 20 18 19 18 16 14 12 10 8 8 10 14 16 14 13 18 22 22 25 29 32 35 38 43 45 44 43 41
4 4 5 5 6 1 3 8 13 32 32 33 37 35 42 41 38 34 30 28 25 26 26 24 20 19 17 14 13 13 15 15 15 16 18 21 23 25 28 30 34 40 43 40 38 37 36 36 38
3 3 7 8 8 9 14 8 9 25 25 27 34 38 40 43 38 36 34 33 30 30 26 22 20 18 16 15 17 17 16 16 18 21 22 24 26 29 33 37 38 37 35 35 35 37 38 38 36
6 9 11 9 5 7 6 10 9 10 20 32 36 40 42 42 43 42 40 38 35 34 28 25 24 21 20 20 19 18 17 16 17 19 22 25 29 33 35 35 35 36 38 38 38 35 36 37 34
6 5 4 7 3 3 5 5 2 5 14 29 35 44 44 45 46 46 45 41 37 33 32 31 27 24 20 17 15 13 12 14 18 20 25 30 33 33 34 36 38 39 38 37 36 35 33 35 32
3 4 3 6 6 1 3 3 4 4 8 8 30 32 42 46 47 46 44 40 38 35 32 28 24 20 16 14 13 13 16 19 22 27 30 32 33 36 37 35 33 32 32 31 31 30 30 29 30
7 0 2 2 4 3 6 5 7 3 7 8 14 33 46 49 39 32 34 37 33 31 28 24 20 15 9 9 11 15 17 21 25 28 31 33 35 34 31 29 29 29 29 29 29 30 29 27 28
1 5 8 5 3 4 5 5 5 5 4 6 11 12 19 20 24 32 32 34 33 27 21 15 11 5 6 12 15 17 20 24 27 31 33 33 32 30 28 27 27 28 29 28 29 29 29 28 28
7 7 3 4 4 5 7 3 7 8 2 6 13 24 28 32 37 40 41 36 29 22 15 9 4 5 9 14 17 19 22 25 28 28 27 27 28 28 29 29 30 28 27 29 29 30 30 29 28
5 8 6 6 4 4 6 3 2 5 17 18 27 32 36 34 38 38 34 30 24 17 11 4 2 8 12 12 17 22 25 25 23 22 23 23 27 28 29 29 29 29 29 28 28 29 27 26 26
5 3 7 6 3 4 3 4 3 8 16 15 18 33 33 37 36 35 30 26 21 14 7 2 6 8 11 18 21 23 22 20 20 19 21 24 25 28 30 30 29 27 26 26 26 26 26 25 25
8 6 2 3 2 3 4 1 2 12 13 8 10 10 26 34 36 33 28 23 19 11 4 4 9 14 18 20 21 19 17 17 18 20 21 22 26 29 29 29 30 26 24 24 25 26 24 24 24
3 3 6 5 4 5 2 3 1 1 4 4 13 18 24 28 30 26 25 21 16 10 4 6 10 14 17 19 17 15 15 17 20 22 22 24 23 27 29 29 28 26 25 24 25 25 25 24 23
5 4 5 5 2 2 3 5 5 3 14 26 16 14 20 23 23 23 19 16 12 6 5 9 15 17 19 18 15 13 14 16 17 19 22 22 22 26 29 28 29 27 26 26 27 26 25 26 24
Wind_Direction
342 336 316 352 58 67 44 250 201 115 53 62 79 74 87 56 60 138 143 141 149 138 131 134 134 132 130 132 132 129 127 126 123 121 123 126 129 132 133 129 122 83 15 5 356 348 344 340 337
343 331 351 18 81 71 261 263 340 46 101 98 79 78 68 74 101 130 137 139 141 136 135 139 136 129 126 126 124 124 123 121 116 113 114 120 128 133 130 118 23 350 345 343 343 341 338 336 334
332 321 348 87 106 161 208 191 97 108 146 246 113 69 80 104 127 142 125 123 113 128 137 142 137 130 125 124 122 121 116 113 110 102 94 90 78 56 30 0 351 345 340 338 336 335 334 331 327
349 4 54 77 277 245 172 133 148 165 199 132 118 76 83 142 130 137 131 123 116 131 140 139 137 137 133 129 123 116 109 103 94 85 76 63 49 29 9 0 348 333 330 327 329 330 327 321 320
335 47 54 30 274 23 55 136 162 159 120 137 130 128 109 145 142 136 135 134 152 132 130 130 132 134 134 133 127 120 112 102 87 78 56 41 29 360 1 344 321 328 330 331 334 331 328 327 322
337 101 61 272 326 77 112 127 116 114 118 111 102 116 131 143 148 157 156 135 102 123 121 119 121 120 122 122 120 116 111 102 85 63 49 20 4 29 25 349 349 350 350 343 331 336 332 322 318
160 85 213 119 249 265 168 143 152 160 156 129 132 118 144 159 151 151 135 121 109 118 114 104 109 102 104 103 99 93 82 67 60 58 47 21 344 292 298 341 351 345 341 333 339 328 322 317 313
261 102 2 232 211 255 152 146 158 157 183 146 147 149 171 165 159 156 141 131 121 114 114 101 100 96 87 96 91 85 76 64 59 53 79 329 8 348 317 330 335 331 330 329 321 318 315 313 307
273 67 353 282 173 209 161 145 169 212 160 170 163 162 153 159 167 166 164 155 144 135 120 98 100 94 83 89 80 76 73 65 60 54 40 19 3 351 337 340 333 330 325 322 318 315 311 311 312
137 76 245 195 22 53 299 186 188 160 163 136 135 148 158 166 167 173 174 162 152 146 141 132 112 101 79 71 62 67 67 56 54 45 46 42 34 40 43 27 17 12 356 344 338 340 338 314 305
197 206 239 278 191 162 205 213 186 142 163 152 149 150 161 169 171 175 180 167 160 157 160 150 139 135 123 99 72 68 66 52 43 26 16 13 11 5 357 353 349 348 346 342 330 325 327 326 315
230 262 260 271 278 183 199 186 165 165 172 162 156 155 167 171 171 170 172 166 166 166 165 160 168 166 165 182 173 126 77 52 11 6 5 7 360 353 341 340 338 338 337 333 320 318 316 313 308
189 261 277 275 257 240 161 165 161 177 161 156 149 156 173 181 178 175 167 166 168 171 167 164 167 173 181 201 200 189 189 258 316 328 322 325 325 324 324 321 322 325 322 321 313 307 303 302 302
295 303 275 239 306 118 117 117 107 158 157 151 157 167 179 172 190 187 176 176 184 174 171 170 184 191 189 200 204 211 233 242 270 312 306 303 313 312 316 313 313 314 315 310 301 295 293 291 291
312 312 349 359 325 107 120 71 148 163 158 163 173 177 165 159 163 170 178 183 188 179 170 170 179 187 208 208 220 259 316 324 318 317 317 309 299 299 297 297 293 288 285 286 286 285 283 286 287
338 41 41 282 336 329 144 198 167 166 167 172 173 174 161 160 163 170 178 185 187 196 198 192 199 207 220 223 232 246 313 304 294 296 290 280 282 287 285 287 287 288 289 291 292 293 293 292 289
0 226 258 298 230 199 127 205 184 174 171 171 176 181 167 165 170 177 187 202 225 232 220 217 221 218 227 236 254 269 269 269 278 283 273 268 278 288 288 289 292 294 294 294 294 296 297 297 298
267 9 318 269 296 235 221 225 155 186 174 176 182 182 176 177 184 189 197 209 217 220 222 221 212 206 218 235 245 254 262 262 269 269 278 286 291 293 292 289 290 292 297 301 303 305 304 302 300
240 243 256 259 256 194 211 187 217 181 186 184 190 188 186 190 195 198 204 208 211 217 206 197 193 202 218 227 246 257 257 260 271 277 283 289 290 291 295 299 302 305 308 309 308 306 303 302 304
267 267 273 285 263 161 179 216 215 158 202 192 195 196 197 196 193 198 201 204 210 201 191 189 196 205 221 242 255 265 269 284 287 285 290 292 297 303 308 310 310 309 307 306 305 304 305 304 307
251 228 237 229 320 24 110 335 210 232 218 210 205 208 206 204 200 199 199 197 198 192 188 188 199 215 225 234 243 256 279 281 280 283 295 305 309 314 315 311 308 306 304 304 305 305 306 307 310
245 203 235 45 46 325 30 259 317 297 306 200 233 221 215 212 209 204 193 191 193 183 185 192 199 208 215 230 253 295 311 312 315 315 312 311 315 314 312 311 308 307 308 311 313 315 314 312 310
213 122 52 66 85 71 346 83 270 339 311 292 275 236 224 221 208 183 183 188 181 173 179 184 189 202 219 258 298 312 315 317 315 313 316 318 318 318 319 321 324 323 325 324 322 318 316 311 307
131 76 36 46 63 20 258 134 275 260 263 328 354 346 220 187 166 169 164 158 154 159 158 157 174 204 300 326 326 318 318 321 323 323 323 325 327 335 336 334 334 333 331 327 325 321 316 312 305
76 61 5 359 6 224 297 22 243 303 344 116 83 73 92 121 134 140 141 140 140 144 148 155 206 303 332 324 316 322 331 329 327 329 333 340 342 343 344 340 336 331 329 328 326 322 317 314 306
177 152 153 204 189 248 320 273 267 344 38 71 99 101 104 108 124 131 131 135 140 144 148 162 342 339 317 320 328 333 337 337 339 345 350 350 350 351 347 340 337 336 332 330 327 323 322 319 313
190 147 187 134 48 73 239 300 322 14 33 25 110 116 121 131 137 139 141 144 143 143 136 40 335 316 334 341 339 338 341 347 355 359 358 2 1 355 349 345 340 339 339 337 335 332 329 325 321
138 164 79 21 134 236 277 249 358 3 14 12 48 80 121 127 137 142 142 143 142 143 124 0 348 346 340 335 343 349 359 7 9 6 10 6 1 359 356 352 350 348 346 347 346 340 336 329 328
8 35 56 112 107 174 185 273 270 274 302 20 152 135 128 133 138 139 143 140 134 125 79 355 343 340 346 355 2 12 24 24 22 18 11 6 7 4 2 2 359 357 356 355 353 351 346 339 334
80 136 113 110 295 85 138 259 260 151 58 64 77 134 130 126 140 143 139 128 119 100 31 2 3 360 5 9 16 25 26 20 17 16 14 15 11 8 9 9 7 7 7 7 3 357 358 354 349